Location: Grieser Field
(39.7333°N, 81.7975°W)
Time: 16:27:53
(UTC-04:00)

Hubble Space Telescope - Visible Passes

Search period start: 30 May 2015 00:00
Search period end: 09 June 2015 00:00
Orbit: 542 x 546 km, 28.5° (Epoch: 29 May)

Date Brightness Start Highest point End Pass type
(mag) Time Alt. Az. Time Alt. Az. Time Alt. Az.
04 Jun 2.7 05:27:32 10° SSW 05:30:01 15° S 05:32:31 10° SE visible
05 Jun 2.6 05:18:32 10° SW 05:21:11 16° S 05:23:50 10° SE visible
06 Jun 2.6 05:09:49 11° SW 05:12:21 17° S 05:15:05 10° SE visible
07 Jun 2.5 05:01:29 13° SW 05:03:31 17° S 05:06:16 10° SE visible
08 Jun 2.5 04:53:13 14° SSW 04:54:41 17° S 04:57:24 10° SE visible
